Location: ????????
(56.0667°N, 38.3000°E)
Time: 12:14:51
(UTC+00:00)

Daily predictions for brighter satellites

Satellite Brightness Start Highest point End
(mag) Time Altitude Azimuth Time Altitude Azimuth Time Altitude Azimuth
Cosmos 1943 Rocket 2.9 16:32:34 10° NNW 16:37:45 39° NE 16:42:54 10° ESE
CSL-04 Debris 4.3 16:32:38 10° SE 16:38:02 62° ENE 16:43:27 10° NNW
CZ-4 R/B 1.3 16:35:47 10° SSE 16:39:35 87° ENE 16:43:29 10° NNW
Cosmos 468 Rocket 4.0 16:36:35 10° SSW 16:41:42 87° ESE 16:46:53 10° NNE
Lacrosse 4 Rocket 1.6 16:38:46 10° NW 16:43:08 81° SW 16:47:29 10° SE
ADEOS 4.1 16:40:03 10° S 16:45:14 63° WSW 16:50:26 10° NNW
KORONAS-FOTON 4.2 16:42:58 10° N 16:46:31 41° ENE 16:50:02 10° SE
Cosmos 841 Rocket 3.6 16:41:52 10° S 16:46:55 55° ESE 16:51:59 10° NE
PAYLOAD B 4.3 16:41:33 10° SSE 16:47:10 89° WSW 16:52:50 10° NNW
Cosmos 1356 Rocket 4.1 16:43:47 10° N 16:47:42 37° ENE 16:51:37 10° SE
Cosmos 1726 2.0 16:45:27 10° SSE 16:48:05 36° E 16:50:44 10° NNE
Cosmos 1536 4.4 16:45:52 10° ESE 16:48:16 16° E 16:50:41 10° NE
Tsikada Rocket 4.3 16:43:10 10° NNW 16:49:25 78° W 16:55:43 10° S
NOSS 2-1 (C) 3.3 16:46:43 10° NW 16:50:07 84° SW 16:54:37 10° SE
Cosmos 1328 Rocket 3.6 16:46:18 10° N 16:50:35 61° ENE 16:54:51 10° SSE
Cosmos 1125 Rocket 4.2 16:48:33 10° NNW 16:53:27 40° NE 16:58:18 10° ESE
Cosmos 2278 Rocket 2.4 16:47:51 10° NNW 16:53:30 60° NE 16:59:06 10° SE
SeaSat 1 3.7 16:49:44 10° NNE 16:54:27 46° NW 16:59:08 10° WSW
Terra 3.2 16:51:57 10° ESE 16:55:39 23° NE 16:59:21 10° N
Cosmos 1674 2.3 16:53:41 10° N 16:57:04 71° ENE 17:00:23 10° SSE
Meteor 1-4 Rocket 2.1 16:54:57 10° N 16:57:34 44° ENE 17:00:10 10° SSE
Ariane Rocket 4.5 16:54:41 10° E 16:58:27 22° NE 17:02:15 10° N
Cosmos 540 Rocket 4.0 16:53:53 10° SW 16:58:57 65° WNW 17:04:03 10° NNE
Iridium 4 Rocket 3.0 16:55:19 10° N 16:59:40 87° W 17:03:49 10° S
CZ-4B R/B 3.2 16:55:16 10° SSE 17:00:46 89° ENE 17:06:12 10° NNW
Cosmos 1743 2.5 16:57:29 10° S 17:01:01 65° E 17:04:35 10° NNE
Cosmos 2016 Rocket 4.2 16:55:29 10° SSW 17:01:35 75° WNW 17:07:43 10° N
Cosmos 1763 Rocket 4.5 16:58:40 10° SW 17:03:34 50° NW 17:08:31 10° NNE
ERS-1 Rocket 3.9 16:59:44 11° ESE 17:04:00 31° ENE 17:08:25 10° N
TSX-5 3.7 17:01:42 10° NW 17:04:52 58° SW 17:07:57 10° SSE
CZ-4B R/B 3.7 17:03:30 10° S 17:07:13 52° W 17:11:08 10° NNW
ATLAS 2AS CENTAUR R/B 3.1 17:00:14 10° WSW 17:07:28 71° NNW 17:14:25 10° NE
Genesis I 2.8 17:06:13 10° SW 17:09:39 69° SE 17:13:10 10° NE
SPOT 5 3.2 17:06:07 10° SE 17:10:36 45° ENE 17:14:55 10° N
CARTOSAT-1 3.8 17:07:16 10° S 17:11:30 71° WSW 17:15:47 10° NNW
USA 290 2.3 17:08:23 10° NNW 17:11:39 61° ENE 17:14:16 14° SE
MOS 1-B 4.4 17:10:44 10° SSE 17:16:33 87° WSW 17:22:24 10° NNW
Cosmos 2360 Rocket 2.4 17:12:57 10° SW 17:18:36 75° NW 17:24:17 10° NNE
Okean 3 Rocket 4.2 17:15:26 10° SSE 17:19:33 37° E 17:23:39 10° NNE
Okean O Rocket 1.6 17:18:11 10° SSE 17:22:38 90° WNW 17:27:06 10° NNW
NOSS 2-1 (E) 3.9 17:22:39 10° WNW 17:26:08 51° SW 17:30:05 13° SSE
Resurs 01 Rocket 2.4 17:22:50 10° S 17:27:10 53° W 17:31:32 10° NNW
Cosmos 2237 Rocket 3.3 17:23:17 10° SSE 17:27:27 22° ESE 17:31:38 10° NE
Cosmos 2322 Rocket 2.9 17:21:54 10° SW 17:27:33 59° NW 17:33:13 10° NNE
ACS3 Solar Sail 1.9 17:21:28 10° SSE 17:27:52 83° ENE 17:34:19 10° NNW
Cosmos 1340 3.0 17:26:19 10° SSW 17:29:32 55° WNW 17:32:47 10° N
Helios 1A 3.6 17:26:50 10° N 17:30:51 57° WNW 17:34:49 10° SSW
USA 186 3.4 17:28:06 10° SSW 17:31:04 34° W 17:34:05 10° NNW
MOS 1 Rocket 3.7 17:27:39 15° SE 17:31:42 54° ENE 17:36:49 10° N
Cosmos 1814 Rocket 4.2 17:28:03 10° S 17:33:08 48° ESE 17:38:11 10° NE
Cosmos 2333 Rocket 2.7 17:29:34 10° SW 17:35:18 66° NW 17:41:05 10° NNE
SL-08 R/B 4.4 17:30:39 10° N 17:35:24 51° WNW 17:40:09 10° SW
NOSS 2-1 (D) 4.3 17:32:46 10° WNW 17:36:10 42° SW 17:39:50 14° SSE
Cosmos 1515 Rocket 3.4 17:32:12 10° N 17:36:33 81° ENE 17:40:28 13° SSE
Cosmos 2344 4.3 17:30:56 10° W 17:38:01 53° N 17:46:15 10° ENE
Okean-O 2.6 17:34:45 13° SSE 17:38:41 80° ENE 17:43:07 10° NNW
BlueWalker 3 3.2 17:36:03 10° W 17:39:18 28° SSW 17:41:17 18° SSE
Cosmos 2219 Rocket 2.2 17:33:48 10° SSW 17:39:30 88° WNW 17:45:14 10° NE
MetOp-B 4.1 17:36:23 13° SSE 17:41:11 75° ENE 17:46:33 10° NNW
CSL-04 Rocket 4.4 17:38:06 10° S 17:43:22 53° W 17:48:35 10° NNW
Sich 1 3.9 17:43:47 23° ESE 17:45:11 28° E 17:48:53 10° NNE
USA 245 3.4 17:45:40 24° NE 17:45:40 24° NE 17:47:24 10° N
USA 267 3.3 17:41:39 18° ESE 17:46:48 82° SSW 17:53:25 10° WNW
Cosmos 1805 4.3 17:46:41 23° E 17:46:53 23° E 17:49:51 10° NE
SL-16 R/B 3.8 17:42:39 10° WSW 17:47:54 37° NW 17:53:10 10° NNE
Cosmos 1842 4.0 17:46:11 10° NNW 17:49:41 47° W 17:53:10 10° S
Cosmos 2369 Rocket 3.2 17:49:16 10° NNW 17:54:33 36° NE 17:58:08 18° E
Meteor 1-13 Rocket 4.3 17:49:32 10° NNW 17:55:31 89° WSW 18:00:34 14° SSE
Cosmos 1980 4.3 17:50:45 10° S 17:55:48 35° ESE 18:00:55 10° NE
IRS-1C Rocket 4.1 17:52:39 20° SSE 17:56:22 73° ENE 18:01:40 10° NNW
DELTA 2 DEB (DPAF) 4.1 17:52:21 10° NNE 17:56:28 52° ESE 17:59:32 17° S
Cosmos 1766 Rocket 4.0 17:52:58 10° SSW 17:57:17 65° WNW 18:01:41 10° N
Cosmos 2298 Rocket 4.2 17:53:04 10° NNW 17:58:21 62° ENE 18:01:17 26° SE
Cosmos 1500 Rocket 4.0 17:57:22 26° SE 17:59:14 40° E 18:03:20 10° NNE
USA 32 4.0 17:54:32 10° N 17:59:47 67° E 18:03:12 22° SSE
Cosmos 2322 3.6 17:54:25 10° SSW 18:00:04 80° ESE 18:05:46 10° NE
Cosmos 1428 Rocket 4.4 17:56:14 10° N 18:02:24 78° ENE 18:06:58 19° SSE
SWARM A 4.3 18:00:33 17° S 18:03:07 86° W 18:06:40 10° N
Cosmos 2150 Rocket 4.0 17:58:24 10° NNW 18:03:36 66° ENE 18:06:16 28° SE
Cosmos 1743 Rocket 4.2 18:02:37 30° ESE 18:03:37 34° E 18:07:33 10° NNE
Spot 2 Rocket 3.6 18:01:44 26° SE 18:04:30 61° ENE 18:09:29 10° NNW
In-Cosmos 22 4.4 18:00:49 10° NNW 18:06:35 73° W 18:11:29 14° S
NOSS 3-4 (A) 3.9 18:01:56 10° NW 18:08:13 63° NNE 18:13:10 21° ESE
NOSS 3-4 (C) 3.9 18:02:02 10° NW 18:08:19 63° NNE 18:13:16 21° ESE
Meteor 2-10 4.1 18:04:06 10° S 18:09:36 70° E 18:15:18 10° NNE
Cosmos 1315 Rocket 2.8 18:07:08 10° NNW 18:11:07 82° WSW 18:13:04 29° S
Cosmos 1707 4.1 18:08:10 10° NNW 18:11:24 33° W 18:14:37 10° SSW
USA 276 3.9 18:09:57 10° WSW 18:11:16 17° SW 18:11:16 17° SW
Cosmos 1570 Rocket 4.3 18:09:36 21° SSE 18:12:41 43° ESE 18:17:39 10° NE
CZ-4 R/B 4.2 18:12:53 10° WSW 18:14:43 13° W 18:16:35 10° WNW
Nadezhda 4 Rocket 4.2 18:09:00 10° NNW 18:15:12 70° W 18:21:01 12° S
Cosmos 2195 Rocket 4.4 18:09:05 10° N 18:15:15 84° ENE 18:19:24 22° SSE
Cosmos 1408 Rocket 3.4 18:13:30 22° S 18:16:18 71° E 18:20:42 10° NNE
Cosmos 1092 Rocket 4.0 18:10:59 10° N 18:17:19 75° ENE 18:21:13 25° SSE
Meteor 1-23 Rocket 4.2 18:12:02 10° NNW 18:17:42 86° ENE 18:21:05 25° SSE
Cosmos 1733 2.9 18:15:43 24° SSW 18:17:43 84° W 18:21:12 10° N
COSMOS 2428 2.7 18:13:22 10° SSW 18:19:05 87° SE 18:24:53 10° NE
Lacrosse 4 Rocket 4.0 18:18:05 10° WNW 18:20:42 16° WSW 18:23:18 10° SW
Cosmos 1818 3.5 18:15:17 10° SW 18:20:47 89° SE 18:26:19 10° NE
Cosmos 1943 Rocket 2.5 18:16:21 10° NW 18:21:47 60° WSW 18:24:57 25° S
Cosmos 1975 3.5 18:22:48 34° E 18:22:48 34° E 18:26:06 10° NNE
USA 59 Rocket 1.8 18:19:57 10° WNW 18:23:01 23° SW 18:25:31 15° SSW
Cosmos 1536 3.0 18:20:01 11° SSW 18:23:42 64° WNW 18:27:32 10° N
SL-16 R/B 3.7 18:25:29 18° E 18:25:29 18° E 18:28:05 10° ENE
Cosmos 2026 Rocket 3.9 18:17:53 10° N 18:24:14 83° E 18:27:59 26° SSE
OPS 6432 4.0 18:23:48 10° NW 18:27:08 86° SSW 18:27:20 76° SE
Cosmos 1464 Rocket 4.2 18:23:05 10° SSW 18:29:24 75° WNW 18:35:49 10° N
Okean 1-7 4.1 18:28:21 10° N 18:32:11 30° ENE 18:32:39 29° ENE
Terra 1.9 18:30:28 30° S 18:32:48 73° WSW 18:37:33 10° NNW
SL-14 R/B 3.1 18:29:09 10° NNW 18:32:58 80° WSW 18:33:54 49° S
Meteor 1-11 Rocket 3.7 18:27:54 10° SSW 18:33:35 87° WNW 18:39:10 10° NNE
CRYOSAT 2 4.3 18:29:00 10° N 18:33:55 86° W 18:36:56 24° S
Cosmos 158 Rocket 3.9 18:33:42 38° SSE 18:35:07 52° ESE 18:39:52 10° NE
Cosmos 1634 Rocket 4.1 18:32:27 30° SSE 18:35:23 56° E 18:41:34 10° NNE
Cosmos 1125 Rocket 4.2 18:30:38 10° NW 18:35:37 48° WSW 18:38:31 23° S
Aureole 3 4.4 18:33:43 10° N 18:36:19 26° ENE 18:36:19 26° ENE
Ariane Rocket 2.9 18:34:38 36° SSE 18:36:48 90° ENE 18:41:54 10° NNW
Cosmos 2278 Rocket 3.4 18:32:14 10° NW 18:37:22 36° WSW 18:41:07 17° SSW
SPOT 3 Rocket 3.5 18:36:39 36° SSE 18:38:50 89° E 18:44:01 10° NNW
Cosmos 1805 Rocket 3.4 18:37:25 41° S 18:38:53 78° E 18:43:14 10° NNE
ERS-1 Rocket 3.5 18:39:39 24° S 18:42:33 56° W 18:47:31 10° NNW
Meteor 2-9 Rocket 4.1 18:38:56 15° SSW 18:43:22 85° WNW 18:48:50 10° NNE
Cosmos 1862 Rocket 3.6 18:41:54 10° N 18:46:17 63° ENE 18:46:57 55° ESE
Okean 3 3.4 18:43:48 10° N 18:47:55 60° ENE 18:48:15 58° E
Cosmos 2034 Rocket 4.1 18:41:53 10° SSW 18:48:05 78° WNW 18:54:19 10° N
SPOT 5 4.3 18:45:10 13° SSW 18:48:46 32° W 18:52:52 10° NNW
Celestis-02/Orion 38 4.5 18:45:35 10° NE 18:50:43 61° ESE 18:52:46 35° S
Cosmos 1707 Rocket 3.5 18:47:07 10° N 18:51:35 78° ENE 18:52:21 60° SE
USA 215 3.5 18:45:57 10° ENE 18:52:07 42° SE 18:58:15 10° SSW
Cosmos 1633 Rocket 3.9 18:53:17 34° ENE 18:53:17 34° ENE 18:56:43 10° NNE
Cosmos 2208 Rocket 3.9 18:55:25 39° S 18:57:18 68° ESE 19:02:37 10° NNE
NOSS 0 Rocket 3.9 18:51:25 10° SW 18:57:41 87° NW 19:03:59 10° NE
MetOp-A 3.8 18:58:35 54° E 18:59:09 58° ENE 19:03:50 10° N
ATLAS 2AS CENTAUR R/B 3.7 18:52:30 10° WNW 18:59:20 46° N 19:05:54 10° ENE
Okean O Rocket 4.3 18:56:54 10° WSW 18:59:33 15° W 19:02:13 10° NW
Cosmos 1666 Rocket 3.9 19:00:46 47° ENE 19:00:46 47° ENE 19:04:39 10° NNE
Landsat 4 4.1 19:01:44 47° NNE 19:01:44 47° NNE 19:04:29 10° N
Meteor 1-21 4.5 18:57:14 10° NNW 19:02:55 67° W 19:05:23 35° S
Cosmos 1656 Rocket 3.6 18:57:43 10° NW 19:03:26 90° NNE 19:05:00 50° SSE
Cosmos 2360 Rocket 4.3 18:58:44 10° W 19:03:30 27° NNW 19:08:17 10° NNE
Cosmos 773 Rocket 4.2 19:06:04 49° ESE 19:06:04 49° ESE 19:11:11 10° NE
Cosmos 2228 Rocket 3.2 19:03:43 10° NNW 19:08:17 73° W 19:09:07 57° SSW
Aureole 3 Rocket 4.2 19:02:43 10° SSW 19:09:53 64° WNW 19:14:59 10° N
Cosmos 2297 3.6 19:04:51 10° NW 19:10:32 89° SW 19:11:54 54° SSE
Cosmos 2237 Rocket 2.1 19:05:10 10° SSW 19:10:49 90° WNW 19:16:30 10° NE
Cosmos 1441 Rocket 4.0 19:13:48 40° NNE 19:13:48 40° NNE 19:16:17 10° NNE
ACS3 Solar Sail 3.7 19:07:29 10° SW 19:12:41 26° W 19:17:55 10° NNW
ARIANE 5 R/B 3.2 19:19:16 44° ENE 19:19:16 44° ENE 19:23:21 10° N
Cosmos 2333 Rocket 4.4 19:15:54 10° W 19:20:40 26° NNW 19:25:27 10° NNE
NOSS 3-3 (C) 4.0 19:22:05 50° ESE 19:22:05 50° ESE 19:28:06 10° NE
Cosmos 1805 4.3 19:21:00 34° WSW 19:21:46 39° WNW 19:25:14 10° N
Sich 1 4.1 19:20:26 25° SW 19:22:26 42° WNW 19:26:34 10° N
CZ-4C R/B 4.0 19:19:17 10° N 19:22:56 49° WNW 19:23:39 43° WSW
Cosmos 2219 Rocket 4.1 19:19:12 10° W 19:24:12 30° NNW 19:29:11 10° NNE
Cosmos 2279 Rocket 3.9 19:22:18 47° S 19:24:13 79° E 19:30:28 10° NNE
USA 267 3.7 19:29:00 39° S 19:30:20 44° SW 19:36:34 10° WNW
NOSS 3-3 (A) 3.7 19:38:25 62° SSE 19:38:50 64° SE 19:45:25 10° NE
Cosmos 2369 Rocket 2.2 19:33:20 10° NW 19:39:03 73° WSW 19:39:53 62° S
Cosmos 1980 4.1 19:34:01 10° SW 19:39:39 62° NW 19:45:19 10° NNE
Okean 2 3.8 19:38:12 10° NNW 19:41:41 56° WNW 19:41:41 56° WNW
SL-08 ROCKET BODY 4.4 19:42:24 10° NNW 19:48:39 83° W 19:49:53 60° S
Cosmos 192 4.3 19:44:01 10° NNW 19:48:53 73° WSW 19:48:53 73° WSW
Cosmos 1766 4.3 19:52:59 41° NNW 19:52:59 41° NNW 19:55:42 10° N
SL-24 DEB 4.3 19:48:14 10° N 19:52:12 66° NNE 19:52:12 66° NNE
Cosmos 2344 4.0 19:46:08 10° WNW 19:53:39 66° NNE 20:00:25 21° ESE
Cosmos 2242 Rocket 4.5 19:50:10 10° N 19:54:02 41° NE 19:54:02 41° NE
Cosmos 783 Rocket 4.5 19:58:30 72° E 19:58:30 72° E 20:03:27 10° NNE
Cosmos 1975 4.3 19:57:50 29° W 19:58:20 30° WNW 20:01:49 10° N
ATLAS CENTAUR R/B 3.9 20:01:59 12° NE 20:01:59 12° NE 20:02:16 10° NE
NOSS 3-4 (A) 3.9 19:52:47 10° NW 19:59:16 59° SW 20:00:35 51° S
NOSS 3-4 (C) 3.9 19:52:53 10° NW 19:59:22 59° SW 20:00:40 52° S
Cosmos 1607 4.0 20:00:25 58° ESE 20:00:25 58° ESE 20:06:23 10° NE
Cosmos 1980 Rocket 4.5 19:57:41 10° NNW 20:01:45 20° NNE 20:05:48 10° ENE
COSMOS 2428 4.5 19:58:56 10° W 20:04:02 32° NNW 20:09:09 10° NNE
Cosmos 1943 Rocket 4.4 20:01:58 10° WNW 20:04:24 13° W 20:06:27 11° WSW
RESURS DK-1 4.3 20:02:44 10° NNW 20:05:57 22° NNE 20:06:43 21° NE
SL-16 R/B 2.0 20:07:18 81° SSE 20:07:29 82° ESE 20:13:11 10° NE
ASTEX 1 3.4 20:09:36 75° NNE 20:09:36 75° NNE 20:14:11 10° N
Okean 1-7 4.0 20:05:29 10° NNW 20:09:11 41° WNW 20:09:11 41° WNW
Cosmos 2266 Rocket 4.2 20:03:36 10° NNW 20:09:44 63° W 20:10:56 53° SW
Meteor 2-5 Rocket 3.8 20:04:18 10° NNW 20:10:16 67° ENE 20:10:47 64° ESE
Terra 4.3 20:09:10 11° WSW 20:11:15 13° W 20:13:33 10° NW
Cosmos 2056 Rocket 4.0 20:09:45 10° NNW 20:14:50 49° NE 20:15:12 48° ENE
Cosmos 2263 4.4 20:09:47 10° NW 20:15:23 56° WSW 20:15:30 55° WSW
ALOS 2 3.2 20:25:26 54° NNE 20:25:26 54° NNE 20:28:59 10° NNW
Meteor 1-22 Rocket 4.4 20:30:04 58° E 20:30:04 58° E 20:35:14 10° NNE
Cosmos 1470 4.4 20:31:10 31° NNW 20:31:10 31° NNW 20:33:30 10° N
Cosmos 1655 Rocket 4.1 20:23:51 10° NNW 20:30:10 66° W 20:31:03 59° SW
Cosmos 1633 Rocket 4.3 20:30:16 35° WNW 20:30:25 35° WNW 20:34:29 10° N
Meteor 1-24 Rocket 3.7 20:26:15 10° NNW 20:32:20 90° ENE 20:32:38 82° SSE
H-2A R/B 3.4 20:34:25 47° N 20:34:25 47° N 20:37:30 10° NNW
Cosmos 1943 3.8 20:34:42 44° ENE 20:34:42 44° ENE 20:38:59 10° NE
Nadezhda 2 Rocket 4.4 20:28:45 10° N 20:35:09 75° ENE 20:35:46 69° ESE
Cosmos 1825 4.4 20:32:11 10° N 20:33:27 21° N 20:33:27 21° N
USA 215 3.1 20:29:07 10° ENE 20:35:42 80° SSE 20:42:17 10° WSW
Cosmos 1244 Rocket 4.3 20:37:04 10° NNW 20:43:18 87° E 20:43:41 79° SSE
Cosmos 1553 Rocket 4.3 20:45:06 53° E 20:45:15 53° E 20:51:20 10° NNE
EO 1 Delta rocket 4.3 20:40:49 10° N 20:45:09 53° WNW 20:45:09 53° WNW
Cosmos 1538 Rocket 4.2 20:49:11 66° NE 20:49:11 66° NE 20:53:53 10° NNE
Cosmos 1869 Rocket 4.5 20:49:59 45° N 20:49:59 45° N 20:53:00 10° NNE
Cosmos 1697 Rocket 4.0 20:44:02 10° NNW 20:49:12 35° NE 20:51:35 25° E
Cosmos 1420 Rocket 4.1 20:44:10 10° NNW 20:48:48 71° NW 20:48:48 71° NW
ATLAS 2AS CENTAUR R/B 3.2 20:44:30 10° WNW 20:51:23 56° NNE 20:56:22 18° E
Meteor 2-10 Rocket 3.7 20:54:31 69° NE 20:54:31 69° NE 20:59:23 10° NNE
Cosmos 2237 Rocket 3.9 20:50:39 10° W 20:55:35 30° NNW 21:00:33 10° NNE
ARIANE 5 R/B 4.2 20:56:43 27° WNW 20:56:43 27° WNW 20:59:36 10° NNW
Cosmos 1656 3.8 20:54:07 10° NNW 20:59:50 66° NE 21:00:10 64° ENE
Cosmos 1025 Rocket 4.4 21:02:52 10° N 21:06:07 33° NE 21:06:07 33° NE
Cosmos 724 4.3 21:11:49 67° W 21:12:23 73° NW 21:18:14 10° NE
NOSS 3-3 (C) 4.3 21:09:29 29° W 21:12:37 63° NNW 21:19:38 10° NE
Cosmos 1680 Rocket 4.3 21:14:38 42° ENE 21:14:38 42° ENE 21:18:37 10° NE
Cosmos 1371 Rocket 4.3 21:10:10 10° NNW 21:14:26 58° NW 21:14:26 58° NW
Cosmos 2369 Rocket 4.1 21:18:35 10° WNW 21:21:39 17° W 21:21:39 17° W
Meteor 1-12 Rocket 4.2 21:26:29 80° NW 21:26:29 80° NW 21:32:01 10° NNE
Cosmos 1953 4.1 21:30:32 28° NNE 21:30:32 28° NNE 21:32:34 10° NNE
H-2A R/B 3.7 21:26:00 10° NNE 21:28:45 28° ENE 21:28:45 28° ENE
ATLAS CENTAUR R/B 3.1 21:36:42 29° N 21:36:42 29° N 21:39:45 10° NE
Cosmos 1975 Rocket 4.4 21:32:32 10° N 21:36:02 33° NE 21:36:02 33° NE
S3M 4.0 21:37:10 65° ESE 21:37:22 65° E 21:43:29 10° NNE
SL-19 R/B 4.2 21:37:06 10° NNE 21:42:36 78° E 21:42:36 78° E
RESURS DK-1 4.1 21:40:08 10° NW 21:42:13 29° NNW 21:42:13 29° NNW
Cosmos 1745 Rocket 3.9 21:38:03 10° NNW 21:44:18 73° W 21:44:30 72° WSW
Cosmos 1980 Rocket 3.3 21:41:57 10° NNW 21:47:16 41° NE 21:50:14 23° E
SL-16 R/B 3.7 21:49:08 20° W 21:52:12 33° NW 21:57:18 10° NNE
Cosmos 1452 Rocket 3.6 21:47:55 10° NNW 21:52:48 74° N 21:52:48 74° N
Cosmos 1455 4.4 21:55:40 21° N 21:55:40 21° N 21:56:57 10° N
Cosmos 2112 Rocket 4.1 21:56:51 71° NE 21:56:51 71° NE 22:01:40 10° NNE
Cosmos 1331 Rocket 4.1 21:52:00 10° NNW 21:56:50 74° N 21:56:50 74° N
CZ-3B R/B 3.4 21:39:16 10° WNW 21:57:46 69° SSW 21:58:52 60° SSE
CZ-2C R/B 3.7 21:59:29 32° E 22:00:51 38° ENE 22:05:36 10° N
IDEFIX/ARIANE 42P 4.4 21:57:37 10° NE 22:01:23 19° E 22:02:12 19° E
Cosmos 2360 4.2 21:56:07 10° NW 22:01:27 74° WNW 22:01:27 74° WNW
Cosmos 1603 3.7 22:04:06 70° WNW 22:04:19 71° NW 22:10:00 10° NNE
USA 281 3.9 22:01:01 18° ESE 22:05:46 51° NE 22:12:06 10° NNW
Cosmos 1417 Rocket 4.4 22:07:36 70° WSW 22:08:07 74° WNW 22:14:30 10° N
In-Cosmos 22 Rocket 4.1 22:02:28 10° NNW 22:08:00 84° WNW 22:08:00 84° WNW
Cosmos 2344 4.0 22:00:24 10° NW 22:08:15 59° SW 22:10:20 50° S
Cosmos 2315 Rocket 3.9 22:09:52 72° SE 22:10:23 77° E 22:16:36 10° NNE
Cosmos 1110 Rocket 4.3 22:05:49 10° NNW 22:10:07 60° NW 22:10:07 60° NW
Cosmos 883 Rocket 4.3 22:11:20 77° SSE 22:11:45 83° E 22:17:55 10° NNE
Cosmos 1733 Rocket 4.3 22:14:47 34° NW 22:14:47 34° NW 22:17:56 10° N
Meteor 1-16 Rocket 4.2 22:14:29 64° WNW 22:14:29 64° WNW 22:19:36 10° N
Cosmos 1943 4.0 22:16:28 39° WNW 22:17:42 45° NW 22:23:08 10° NNE
USA 215 3.2 22:12:15 10° E 22:18:50 83° N 22:25:24 10° W
Cosmos 2154 Rocket 4.5 22:14:21 10° N 22:20:27 54° ENE 22:22:22 40° ESE
Cosmos 1908 Rocket 4.2 22:22:57 55° N 22:22:57 55° N 22:26:31 10° N
Cosmos 1833 Rocket 3.5 22:24:24 38° ESE 22:24:26 38° ESE 22:29:37 10° NE
ARIANE 6 FM1 Upper Stage 3.7 22:26:27 44° NE 22:26:27 44° NE 22:29:29 10° ENE
Resurs 1-4 Rocket 3.9 22:23:59 10° NE 22:28:00 21° E 22:29:27 19° ESE
Cosmos 921 Rocket 3.6 22:34:26 54° NE 22:34:26 54° NE 22:37:57 10° NNE
Cosmos 1709 Rocket 4.3 22:27:29 10° NNW 22:33:34 49° W 22:33:49 49° W
Cosmos 1697 Rocket 2.6 22:27:59 10° NW 22:33:16 70° W 22:33:16 70° W
Cosmos 2360 Rocket 4.4 22:30:56 10° NNW 22:35:28 24° NNE 22:39:59 10° ENE
Cosmos 1782 Rocket 4.0 22:38:46 62° NNE 22:38:46 62° NNE 22:42:31 10° NNE
Cosmos 494 Rocket 3.9 22:39:31 86° N 22:39:31 86° N 22:44:39 10° NNE
ATLAS 2AS CENTAUR R/B 2.5 22:35:45 10° NW 22:42:37 70° SW 22:43:40 61° S
Cosmos 2322 Rocket 4.2 22:39:57 10° NNW 22:44:51 28° NNE 22:49:43 10° E
Cosmos 220 Rocket 4.4 22:50:52 57° NE 22:50:52 57° NE 22:54:23 10° NNE
Cosmos 2074 Rocket 3.9 22:44:24 10° NNW 22:50:40 87° W 22:51:48 63° S
Cosmos 1992 Rocket 4.3 22:46:35 10° NNW 22:51:48 65° ENE 22:53:23 43° ESE
Cosmos 2369 3.9 22:46:59 10° NNW 22:52:41 70° NE 22:55:37 29° SE
COBE Rocket 4.0 22:48:24 10° N 22:52:58 65° WNW 22:52:58 65° WNW
Cosmos 2333 Rocket 4.3 22:48:18 10° NNW 22:53:12 28° NNE 22:58:05 10° E
Meteor 1-11 4.4 22:47:38 10° NNW 22:53:12 55° W 22:53:12 55° W
IRIDIUM 104 4.5 22:54:57 59° WNW 22:54:57 59° WNW 23:00:06 10° N
Cosmos 1680 Rocket 4.3 22:54:53 38° WNW 22:55:43 40° NW 23:00:45 10° NNE
Cosmos 2082 Rocket 3.9 22:55:04 20° SE 22:56:41 22° ESE 23:00:53 10° NE
Nimbus 7 Rocket 4.3 22:58:22 10° NNE 23:04:15 76° WNW 23:05:15 61° SW
CZ-2D R/B 3.3 22:59:32 10° NNE 23:04:36 37° E 23:06:27 29° SE
Cosmos 1953 4.3 23:05:32 20° NW 23:05:32 20° NW 23:07:50 10° NNW
SL-16 R/B 3.4 23:00:08 10° NNW 23:05:31 41° NE 23:10:53 10° ESE
H-2A R/B 2.9 23:01:36 10° N 23:05:28 41° NW 23:05:28 41° NW
SL-16 R/B 3.4 23:00:10 10° SE 23:06:05 48° ENE 23:12:04 10° NNW
Cosmos 1271 Rocket 4.1 23:05:13 10° N 23:08:27 31° ENE 23:08:52 30° E
Cosmos 521 Rocket 4.5 23:07:07 10° NW 23:13:33 62° SW 23:14:50 52° S
Cosmos 468 4.4 23:13:38 72° SSW 23:14:13 90° ESE 23:19:34 10° NNE
Cosmos 1975 Rocket 4.4 23:10:21 10° NNW 23:13:04 29° NW 23:13:04 29° NW
ATLAS CENTAUR R/B 3.5 23:11:29 10° NW 23:14:39 23° N 23:17:56 10° ENE
CZ-4C R/B 3.6 23:15:18 19° SE 23:16:16 20° ESE 23:20:13 10° ENE
Lacrosse 5 4.0 23:18:50 14° SE 23:19:14 14° SE 23:21:54 10° E
SeaSat 1 3.6 23:14:54 10° ESE 23:19:33 44° NE 23:24:13 10° NNW
Cosmos 2084 Rocket 4.3 23:19:50 39° NW 23:20:28 42° NNW 23:24:23 10° NE
Geosat 4.2 23:20:03 10° NE 23:25:01 60° ESE 23:25:50 52° SSE
Cosmos 1375 Rocket 4.5 23:19:40 10° NW 23:26:17 89° SW 23:32:46 10° SE
Cosmos 2341 Rocket 4.3 23:20:13 10° N 23:26:27 64° ENE 23:30:56 19° SSE
Cosmos 1302 Rocket 4.5 23:21:33 10° NW 23:25:50 43° W 23:25:50 43° W
ADEOS II 3.2 23:22:36 10° NNE 23:27:31 38° E 23:29:51 25° SE
Cosmos 2184 Rocket 4.1 23:21:52 10° NNW 23:27:57 55° W 23:29:04 48° SW
Cosmos 1980 Rocket 2.1 23:26:01 10° NW 23:31:31 58° WSW 23:31:54 57° SW
Cosmos 1818 4.3 23:28:49 10° NW 23:34:14 54° NNE 23:39:36 10° ESE
Cosmos 2218 Rocket 4.5 23:29:21 10° N 23:35:40 61° ENE 23:41:36 11° SSE
Helios 1A Rocket 4.3 23:37:35 26° NW 23:37:35 26° NW 23:39:35 10° NNW
Cosmos 2327 Rocket 4.3 23:31:40 10° NNW 23:37:51 82° W 23:40:19 38° S
Gbstr 26 Del rocket 4.4 23:37:52 41° S 23:38:48 43° SSE 23:44:11 10° E
CZ-2C R/B 2.8 23:40:58 47° WSW 23:41:04 47° W 23:46:04 10° NNW
IDEFIX/ARIANE 42P 2.5 23:36:19 10° NNE 23:41:37 88° W 23:42:56 52° SSW
ALOS 3.5 23:41:25 10° NNE 23:45:40 35° E 23:48:04 21° SSE
Cosmos 2098 Rocket 2.8 23:46:28 57° NNE 23:46:28 57° NNE 23:49:21 10° NNE
Nadezhda 1 Rocket 3.9 23:46:12 42° SSW 23:48:26 82° WNW 23:54:44 10° N
Cosmos 1536 Rocket 3.7 23:44:12 10° NNW 23:48:25 54° W 23:48:25 54° W
USA 281 3.3 23:47:53 36° SSW 23:50:18 54° WSW 23:56:45 10° NW
Sich 1 Rocket 3.6 23:50:20 57° S 23:51:16 86° E 23:55:52 10° NNE
